Location: Shenandoah County Park
(38.9356°N, 78.4524°W)
Time: 14:49:20
(UTC-05:00)

Vanguard 2 Rocket - Pass Details

Date: 07 December 2023
Orbit: 555 x 3309 km, 32.9° (Epoch: 03 March)

Event Time Altitude Azimuth Distance (km) Brightness Sun altitude
Rises 14:40:18 0° 247° (WSW) 5,982 12.1 18.5°
Reaches altitude 10° 14:43:46 10° 244° (WSW) 5,265 12.1 18.1°
Maximum altitude 15:00:44 68° 166° (SSE) 3,400 10.3 16.0°
Drops below altitude 10° 15:20:33 10° 90° (E) 6,023 10.7 13.3°
Sets 15:24:50 0° 88° (E) 6,844 10.9 12.7°
